Regional Weather Roundup
Issued by NWS Upton, NY

Current Version | Previous Version | Text Only | Print | Product List | Glossary Off
Versions: 1 2 3 4 5 6 7 8 9 10 11 12 13 14 15 16 17 18 19 20 21 22 23 24 25 26 27 28 29 30 31 32 33 34 35 36 37 38 39 40 41 42 43 44 45 46 47 48 49 50
000 ASUS41 KOKX 021205 RWROKX Regional Weather Roundup National Weather Service New York NY 700 AM EST TUE MAR 02 2021 Note: "FAIR" indicates few or no clouds below 12,000 feet with no significant weather and/or obstructions to visibility. NYZ071-072-176-178-NJZ106-104-021300- New York City Metro Area CITY SKY/WX TMP DP RH WIND PRES REMARKS Central Park PTCLDY 21 0 39 W13G23 30.17R WCI 9 Bronx Lehman C N/A 23 3 42 NW13 N/A WCI 11 LaGuardia Arpt PTCLDY 23 2 40 NW21G32 30.15R WCI 8 Queens College N/A 23 1 39 W17 N/A WCI 9 Kennedy Intl PTCLDY 22 0 38 NW23G33 30.16R WCI 6 Breezy Point N/A N/A N/A N/A NW21G28 N/A Brooklyn Coll N/A 23 0 36 W24G36 N/A WCI 7 Staten Island N/A 23 0 36 NW16G29 N/A WCI 10 Newark/Liberty PTCLDY 22 -2 35 NW21G31 30.18R WCI 6 Teterboro CLEAR 21 2 43 NW16G25 30.16R WCI 7 $$ NYZ177-179-078>081-021300- Long Island New York CITY SKY/WX TMP DP RH WIND PRES REMARKS Jones Beach N/A N/A N/A N/A NW26G37 N/A Wantagh N/A 23 3 42 NW14 N/A WCI 11 Hempstead NOT AVBL Matinecock Pt N/A N/A N/A N/A NW33G39 N/A Farmingdale CLEAR 21 3 45 NW23G32 30.12R WCI 5 MacArthur/ISP PTCLDY 21 2 43 NW22G38 30.08R WCI 5 Shirley CLEAR 22 1 40 NW21G38 30.08R WCI 6 Mt Sinai Harb N/A N/A N/A N/A NW21G35 N/A Westhampton CLEAR 21 -1 38 NW26G40 30.08R WCI 4 East Hampton FAIR 20 -1 38 NW16G31 30.04R WCI 6 Southold N/A 23 1 39 NW21G36 N/A WCI 8 Montauk N/A 21 2 43 NW26G43 30.02R WCI 4 $$ NYZ052-065-067-021300- Hudson Valley CITY SKY/WX TMP DP RH WIND PRES REMARKS White Plains PTCLDY 19 1 45 NW32G40 30.09R WCI -1 Larchmont Harb NOT AVBL Croton On Huds N/A N/A N/A N/A NW17G24 N/A Somers N/A 18 0 45 NW12 N/A WCI 5 Brewster N/A 16 0 48 NW9G21 N/A WCI 4 Newburgh PTCLDY 16 1 53 NW16G28 30.12R WCI 0 Montgomery CLEAR 20 0 41 NW22G36 30.11R WCI 3 Otisville N/A 16 1 53 NW7G26 N/A WCI 6 Warwick N/A 18 3 53 NW21 N/A WCI 1 Suffern N/A 18 5 57 NW18G32 N/A WCI 2 Poughkeepsie CLEAR 18 -2 41 W17G26 30.12R WCI 3 Albany PTCLDY 9 -5 53 W14G26 30.13R WCI -7 $$ NJZ001-105-106-008-010-013-015-019>022-104-021300- New Jersey CITY SKY/WX TMP DP RH WIND PRES REMARKS Newark/Liberty PTCLDY 22 -2 35 NW21G31 30.18R WCI 6 Teterboro CLEAR 21 2 43 NW16G25 30.16R WCI 7 Caldwell CLEAR 22 -1 36 NW14G21 30.16R WCI 9 Somerville CLEAR 22 1 40 W14G26 30.17R WCI 9 Linden FAIR 22 -2 34 NW20G39 30.19R WCI 7 Perth Amboy NOT AVBL Sussex CLEAR 18 2 49 MISG 30.11S Andover N/A 18 -1 43 N12G20 30.15R WCI 5 Trenton CLEAR 22 2 42 NW18G29 30.18S WCI 7 Millville CLEAR 27 6 41 NW15G24 30.23R WCI 15 Atlantic City NOT AVBL Wrightstown CLEAR 24 1 37 NW21G32 30.19 WCI 9 Toms River CLEAR 24 3 40 NW10G28 30.20R WCI 14 Belmar CLEAR 23 2 40 NW25G31 30.18R WCI 7 $$ PAZ047>061-062-071-021300- Eastern Pennsylvania CITY SKY/WX TMP DP RH WIND PRES REMARKS Philadelphia CLEAR 25 3 38 NW18G26 30.24R WCI 11 Allentown CLEAR 20 2 45 NW16G28 30.20S WCI 6 Scranton CLOUDY 18 4 54 NW9G20 30.18R WCI 7 $$ CTZ002-004>006-009-010-012-RIZ004-006-007-MAZ004-011-015-021300- Southern New England In CT CITY SKY/WX TMP DP RH WIND PRES REMARKS Bradley Intl PTCLDY 13 -6 42 NW16G40 30.03R WCI -3 Hartford PTCLDY 17 -4 39 NW16G32 30.08R WCI 2 Danbury CLEAR 19 -1 41 W15G23 30.07S WCI 5 Wtrbury/Oxford CLEAR 15 -1 49 W18G29 30.01R WCI -2 Norwalk Harbor N/A N/A N/A N/A NW22G28 N/A Bridgeport CLEAR 21 0 39 W22G33 30.07R WCI 5 Meriden FLURRIES 17 -5 37 NW12G17 30.07R WCI 4 New Haven CLEAR 21 1 41 NW14G30 30.06R WCI 8 Chester FAIR 16 -6 38 NW16G24 30.02R WCI 0 Groton CLEAR 18 -4 37 NW22G40 30.01R WCI 1 Willimantic CLEAR 14 -7 38 NW22G40 30.04R WCI -4 In RI CITY SKY/WX TMP DP RH WIND PRES REMARKS Providence PTCLDY 16 -8 34 NW22G40 29.95R WCI -2 Block Island CLEAR 18 -1 43 NW22G41 29.98S WCI 1 Westerly CLEAR 15 -4 42 W20G45 29.97F WCI -2 In MA CITY SKY/WX TMP DP RH WIND PRES REMARKS Boston PTCLDY 13 -10 35 W29G38 29.89R WCI -8 Worcester CLEAR 9 -10 42 W24G39 29.85R WCI -12 Westfield CLEAR 12 -6 44 NW33G45 29.97R WCI -10 Provincetown PTCLDY 17 4 56 NW35G49 29.84 WCI -4 Nantucket PTCLDY 19 3 49 W25G41 29.88R WCI 1 $$ ANZ330-335-338-340-345-350-353-355-021300- Coastal Marine Observations STATION/POSITION TIME SKY/WX TEMP WIND PRES VSBY WAVE AIR SEA DIR/SP/G HT/PER (UTC) (F) (DEG/KT/KT) (MB) (MI) (FT/S) NY Harb Entrance 1150 40 310/ 29/ 37 1020.5 6/ 5 20 S Fire Island 1150 42 310/ 27/ 37 1019.6 8/ 7 Great South Bay NOT AVBL 23 SSW Montauk P 1150 25 41 300/ 29/ 37 1017.5 10/ 8 15 E Barnegat Li 1126 42 N/A 7/ 6 Hudson Canyon NOT AVBL Kings Point 1130 22 10/ 15/ 21 1021.5 Execution Rocks NOT AVBL Western LI Sound NOT AVBL Central LI Sound NOT AVBL Robbins Reef 1130 22 310/ 28/ 34 1021.2 $$ >>>>>>>>>>>>>>>>>>>>>>>>>>>> KEY <<<<<<<<<<<<<<<<<<<<<<<<<<< > < > SKY/WX - Sky Condition/Present Weather < > TMP - Temperature in Fahrenheit < > DP - Dew Point in Fahrenheit < > RH - Relative Humidity in Percent < > WIND - Direction (from) and Speed in MPH < > PRES - Mean Sea Level Pressure (inches of Hg) < > WCI - Wind Chill Index < > VSB - Visibility in Miles < > HX - Heat Index < > TC - Temperature in Celsius < > VRB - Variable Wind Direction < > < >>>>>>>>>>>>>>>>>>>>>>>>>>>> KEY <<<<<<<<<<<<<<<<<<<<<<<<<<<

USA.gov is the U.S. government's official web portal to all federal, state and local government web resources and services.